PLF105 EPPO-EPWA

Flight info

Callsign PLF105
Flight time 0h 41m
Altitude 27000
Route OBOKU DCT DOSIX DCT BIMPA
Aircraft B738/M-SDE2E3FGHIRWXY/LB1

Departure

Time 2026-05-09 06:55
Airport Poznań-Ławica Airport (EPPO)

Arrival

Time 2026-05-09 07:37
Airport Warsaw Chopin Airport (EPWA)
Time Latitude Longitude Altitude Speed Heading
2026-05-09 06:26 52.41573 16.83056 287 ft 0 kts 193°
2026-05-09 06:46 52.41584 16.83060 287 ft 2 kts 193°
2026-05-09 06:46 52.41600 16.83066 287 ft 2 kts 193°
2026-05-09 06:46 52.41616 16.83072 287 ft 2 kts 193°
2026-05-09 06:46 52.41632 16.83077 287 ft 2 kts 193°
2026-05-09 06:47 52.41648 16.83083 287 ft 2 kts 192°
2026-05-09 06:47 52.41655 16.83086 287 ft 0 kts 192°
2026-05-09 06:50 52.41641 16.83065 287 ft 4 kts 243°
2026-05-09 06:50 52.41647 16.82981 287 ft 12 kts 280°
2026-05-09 06:50 52.41710 16.82855 287 ft 19 kts
2026-05-09 06:51 52.41862 16.82891 287 ft 25 kts 334°
2026-05-09 06:51 52.41931 16.82634 287 ft 26 kts 288°
2026-05-09 06:51 52.41984 16.82350 287 ft 25 kts 287°
2026-05-09 06:51 52.42035 16.82086 289 ft 24 kts 287°
2026-05-09 06:52 52.42083 16.81835 290 ft 23 kts 287°
2026-05-09 06:52 52.42129 16.81593 287 ft 22 kts 287°
2026-05-09 06:52 52.42178 16.81340 287 ft 24 kts 287°
2026-05-09 06:52 52.42231 16.81068 293 ft 26 kts 287°
2026-05-09 06:53 52.42287 16.80777 287 ft 28 kts 288°
2026-05-09 06:53 52.42375 16.80567 287 ft 9 kts
2026-05-09 06:53 52.42391 16.80571 287 ft 0 kts
2026-05-09 06:54 52.42397 16.80572 287 ft 4 kts
2026-05-09 06:54 52.42458 16.80610 288 ft 15 kts 39°
2026-05-09 06:54 52.42474 16.80713 288 ft 1 kts 105°
2026-05-09 06:54 52.42473 16.80719 288 ft 1 kts 105°
2026-05-09 06:55 52.42407 16.81074 288 ft 70 kts 107°
2026-05-09 06:55 52.42188 16.82209 289 ft 136 kts 108°
2026-05-09 06:55 52.41868 16.83943 494 ft 170 kts 106°
2026-05-09 06:55 52.41539 16.85685 1515 ft 158 kts 106°
2026-05-09 06:56 52.41196 16.87436 2172 ft 169 kts 106°
2026-05-09 06:56 52.40801 16.89452 2467 ft 202 kts 107°
2026-05-09 06:56 52.40343 16.91789 2698 ft 227 kts 107°
2026-05-09 06:56 52.39846 16.94320 3185 ft 242 kts 107°
2026-05-09 06:57 52.39310 16.97058 3683 ft 259 kts 107°
2026-05-09 06:57 52.39130 16.97975 3936 ft 261 kts 107°
2026-05-09 06:57 52.37662 17.05471 6160 ft 268 kts 106°
2026-05-09 06:58 52.37088 17.08402 6940 ft 273 kts 107°
2026-05-09 06:58 52.36509 17.11348 7697 ft 277 kts 107°
2026-05-09 06:58 52.35915 17.14367 8475 ft 280 kts 106°
2026-05-09 06:58 52.35310 17.17422 9219 ft 284 kts 107°
2026-05-09 06:59 52.34692 17.20520 9956 ft 289 kts 107°
2026-05-09 06:59 52.34060 17.23680 10569 ft 299 kts 107°
2026-05-09 06:59 52.33387 17.27043 10749 ft 323 kts 107°
2026-05-09 06:59 52.32663 17.30657 10922 ft 346 kts 107°
2026-05-09 07:00 52.31895 17.34478 11305 ft 359 kts 108°
2026-05-09 07:00 52.31108 17.38389 11921 ft 365 kts 108°
2026-05-09 07:00 52.30316 17.42318 12560 ft 370 kts 108°
2026-05-09 07:00 52.29504 17.46340 13245 ft 374 kts 108°
2026-05-09 07:01 52.28681 17.50403 13951 ft 378 kts 108°
2026-05-09 07:01 52.27849 17.54499 14655 ft 382 kts 108°
2026-05-09 07:01 52.27006 17.58642 15345 ft 386 kts 108°
2026-05-09 07:01 52.26153 17.62830 16014 ft 391 kts 108°
2026-05-09 07:02 52.25291 17.67059 16680 ft 395 kts 108°
2026-05-09 07:02 52.24418 17.71328 17346 ft 398 kts 108°
2026-05-09 07:02 52.23566 17.75651 17960 ft 402 kts 104°
2026-05-09 07:02 52.23333 17.80206 18516 ft 406 kts 84°
2026-05-09 07:03 52.23741 17.84788 19148 ft 409 kts 79°
2026-05-09 07:03 52.24213 17.89387 19706 ft 413 kts 79°
2026-05-09 07:03 52.24662 17.93990 20223 ft 418 kts 80°
2026-05-09 07:03 52.25094 17.98711 20752 ft 423 kts 81°
2026-05-09 07:04 52.25510 18.03486 21280 ft 426 kts 81°
2026-05-09 07:04 52.25911 18.08305 21789 ft 430 kts 81°
2026-05-09 07:04 52.26307 18.13169 22296 ft 434 kts 81°
2026-05-09 07:04 52.26705 18.18077 22780 ft 437 kts 81°
2026-05-09 07:05 52.27104 18.23021 23244 ft 441 kts 81°
2026-05-09 07:05 52.27507 18.28008 23699 ft 444 kts 81°
2026-05-09 07:05 52.27912 18.33034 24130 ft 448 kts 81°
2026-05-09 07:05 52.28319 18.38103 24559 ft 451 kts 81°
2026-05-09 07:06 52.28728 18.43213 25000 ft 454 kts 82°
2026-05-09 07:06 52.29130 18.48270 25432 ft 456 kts 82°
2026-05-09 07:06 52.29537 18.53412 25864 ft 458 kts 82°
2026-05-09 07:06 52.29944 18.58589 26260 ft 460 kts 82°
2026-05-09 07:07 52.30351 18.63796 26636 ft 463 kts 82°
2026-05-09 07:07 52.30758 18.69033 27006 ft 466 kts 82°
2026-05-09 07:07 52.31166 18.74306 27199 ft 470 kts 82°
2026-05-09 07:07 52.31571 18.79583 27181 ft 463 kts 82°
2026-05-09 07:08 52.31965 18.84754 27181 ft 454 kts 82°
2026-05-09 07:08 52.32352 18.89855 27188 ft 450 kts 82°
2026-05-09 07:08 52.32736 18.94942 27169 ft 452 kts 82°
2026-05-09 07:08 52.33120 19.00057 26748 ft 452 kts 82°
2026-05-09 07:09 52.33493 19.05057 26263 ft 447 kts 82°
2026-05-09 07:09 52.33866 19.10075 25767 ft 442 kts 82°
2026-05-09 07:09 52.34233 19.15047 25262 ft 438 kts 82°
2026-05-09 07:09 52.34595 19.19974 24757 ft 434 kts 82°
2026-05-09 07:10 52.34941 19.24866 24253 ft 431 kts 83°
2026-05-09 07:10 52.35209 19.29734 23757 ft 427 kts 84°
2026-05-09 07:10 52.35432 19.34561 23255 ft 424 kts 85°
2026-05-09 07:10 52.35642 19.39357 22762 ft 421 kts 85°
2026-05-09 07:11 52.35855 19.44129 22263 ft 419 kts 85°
2026-05-09 07:11 52.36072 19.48870 21762 ft 416 kts 85°
2026-05-09 07:11 52.36292 19.53578 21264 ft 414 kts 85°
2026-05-09 07:11 52.36513 19.58270 20769 ft 412 kts 85°
2026-05-09 07:12 52.36731 19.62926 20274 ft 409 kts 85°
2026-05-09 07:12 52.36947 19.67558 19787 ft 407 kts 85°
2026-05-09 07:12 52.37158 19.72162 19349 ft 403 kts 85°
2026-05-09 07:12 52.37383 19.76671 19199 ft 391 kts 81°
2026-05-09 07:13 52.38099 19.80902 18881 ft 383 kts 66°
2026-05-09 07:13 52.39110 19.84907 18576 ft 379 kts 65°
2026-05-09 07:13 52.40117 19.88827 18253 ft 376 kts 65°
2026-05-09 07:13 52.41113 19.92740 17929 ft 369 kts 65°
2026-05-09 07:14 52.42095 19.96647 17626 ft 373 kts 65°
2026-05-09 07:14 52.43080 20.00620 17320 ft 376 kts 66°
2026-05-09 07:14 52.44056 20.04587 16994 ft 374 kts 66°
2026-05-09 07:14 52.45018 20.08529 16674 ft 371 kts 66°
2026-05-09 07:15 52.45974 20.12453 16371 ft 368 kts 66°
2026-05-09 07:15 52.46918 20.16338 16049 ft 366 kts 66°
2026-05-09 07:15 52.47859 20.20213 15740 ft 364 kts 66°
2026-05-09 07:15 52.48786 20.24043 15425 ft 356 kts 66°
2026-05-09 07:16 52.49670 20.27702 15122 ft 343 kts 66°
2026-05-09 07:16 52.50467 20.31318 14818 ft 332 kts 77°
2026-05-09 07:16 52.50534 20.35034 14568 ft 322 kts 99°
2026-05-09 07:16 52.49844 20.38479 14302 ft 315 kts 118°
2026-05-09 07:17 52.48791 20.41614 14058 ft 314 kts 121°
2026-05-09 07:17 52.47679 20.44730 13796 ft 319 kts 121°
2026-05-09 07:17 52.46548 20.47880 13526 ft 320 kts 121°
2026-05-09 07:17 52.45432 20.51012 13242 ft 317 kts 121°
2026-05-09 07:18 52.44330 20.54131 12970 ft 314 kts 120°
2026-05-09 07:18 52.43243 20.57222 12705 ft 312 kts 120°
2026-05-09 07:18 52.42164 20.60301 12439 ft 311 kts 120°
2026-05-09 07:18 52.41089 20.63367 12185 ft 309 kts 120°
2026-05-09 07:19 52.40029 20.66387 11921 ft 309 kts 120°
2026-05-09 07:19 52.38957 20.69434 11659 ft 308 kts 120°
2026-05-09 07:19 52.37888 20.72472 11404 ft 307 kts 120°
2026-05-09 07:19 52.36820 20.75498 11140 ft 306 kts 120°
2026-05-09 07:20 52.35756 20.78510 10879 ft 305 kts 120°
2026-05-09 07:20 52.34695 20.81511 10615 ft 303 kts 120°
2026-05-09 07:20 52.33643 20.84485 10355 ft 298 kts 120°
2026-05-09 07:20 52.32623 20.87365 10092 ft 288 kts 120°
2026-05-09 07:21 52.31648 20.90116 9845 ft 280 kts 119°
2026-05-09 07:21 52.30678 20.92852 9617 ft 277 kts 119°
2026-05-09 07:21 52.29715 20.95562 9395 ft 277 kts 119°
2026-05-09 07:21 52.28743 20.98295 9165 ft 279 kts 119°
2026-05-09 07:22 52.27760 21.01052 8929 ft 280 kts 120°
2026-05-09 07:22 52.26482 21.03406 8663 ft 279 kts 144°
2026-05-09 07:22 52.24805 21.04989 8451 ft 276 kts 152°
2026-05-09 07:22 52.23098 21.06422 8210 ft 275 kts 152°
2026-05-09 07:23 52.21394 21.07851 7898 ft 277 kts 152°
2026-05-09 07:23 52.19679 21.09308 7605 ft 276 kts 152°
2026-05-09 07:23 52.18023 21.10726 7348 ft 267 kts 152°
2026-05-09 07:23 52.16405 21.12116 7111 ft 258 kts 152°
2026-05-09 07:24 52.14840 21.13464 6884 ft 250 kts 152°
2026-05-09 07:24 52.13328 21.14784 6676 ft 244 kts 151°
2026-05-09 07:24 52.11834 21.16094 6480 ft 244 kts 151°
2026-05-09 07:24 52.10336 21.17407 6285 ft 244 kts 151°
2026-05-09 07:25 52.08850 21.18708 6081 ft 246 kts 152°
2026-05-09 07:25 52.07342 21.20027 5878 ft 247 kts 152°
2026-05-09 07:25 52.05824 21.21354 5660 ft 248 kts 152°
2026-05-09 07:25 52.04301 21.22684 5457 ft 249 kts 152°
2026-05-09 07:26 52.03288 21.23566 5312 ft 249 kts 152°
2026-05-09 07:26 52.01770 21.24888 5096 ft 245 kts 152°
2026-05-09 07:26 52.00285 21.26179 4974 ft 239 kts 152°
2026-05-09 07:26 51.98823 21.27438 4899 ft 237 kts 152°
2026-05-09 07:27 51.97356 21.28701 4847 ft 240 kts 153°
2026-05-09 07:27 51.95867 21.29980 4782 ft 243 kts 153°
2026-05-09 07:27 51.94372 21.31267 4707 ft 242 kts 153°
2026-05-09 07:27 51.92906 21.32527 4636 ft 241 kts 153°
2026-05-09 07:28 51.91414 21.33755 4564 ft 240 kts 161°
2026-05-09 07:28 51.89792 21.33972 4486 ft 234 kts 196°
2026-05-09 07:28 51.88387 21.32778 4443 ft 228 kts 225°
2026-05-09 07:28 51.87436 21.30763 4402 ft 225 kts 242°
2026-05-09 07:29 51.86684 21.28528 4342 ft 227 kts 245°
2026-05-09 07:29 51.86203 21.26115 4250 ft 226 kts 270°
2026-05-09 07:29 51.86550 21.23682 4207 ft 224 kts 301°
2026-05-09 07:29 51.87595 21.21850 4155 ft 224 kts 326°
2026-05-09 07:30 51.88945 21.20579 4104 ft 225 kts 331°
2026-05-09 07:30 51.90361 21.19463 4030 ft 226 kts 335°
2026-05-09 07:30 51.91793 21.18373 3930 ft 228 kts 333°
2026-05-09 07:30 51.93196 21.17213 3815 ft 225 kts 332°
2026-05-09 07:31 51.94569 21.16025 3689 ft 221 kts 331°
2026-05-09 07:31 51.95909 21.14850 3480 ft 213 kts 331°
2026-05-09 07:31 51.97163 21.13748 3375 ft 197 kts 331°
2026-05-09 07:31 51.98323 21.12728 3287 ft 183 kts 331°
2026-05-09 07:32 51.99430 21.11756 3237 ft 183 kts 331°
2026-05-09 07:32 52.00539 21.10782 3154 ft 181 kts 331°
2026-05-09 07:32 52.01641 21.09814 3032 ft 176 kts 332°
2026-05-09 07:32 52.02686 21.08897 2986 ft 166 kts 332°
2026-05-09 07:33 52.03693 21.08012 2931 ft 164 kts 332°
2026-05-09 07:33 52.05728 21.06225 2522 ft 166 kts 332°
2026-05-09 07:33 52.06745 21.05333 2304 ft 165 kts 332°
2026-05-09 07:34 52.07742 21.04457 2078 ft 161 kts 332°
2026-05-09 07:34 52.08695 21.03619 1867 ft 150 kts 332°
2026-05-09 07:34 52.09575 21.02849 1697 ft 138 kts 333°
2026-05-09 07:34 52.10404 21.02121 1530 ft 135 kts 333°
2026-05-09 07:35 52.11222 21.01405 1345 ft 135 kts 333°
2026-05-09 07:35 52.12050 21.00678 1151 ft 135 kts 333°
2026-05-09 07:35 52.12879 20.99951 979 ft 136 kts 333°
2026-05-09 07:35 52.13712 20.99220 791 ft 135 kts 333°
2026-05-09 07:36 52.14542 20.98492 625 ft 136 kts 332°
2026-05-09 07:36 52.15378 20.97759 429 ft 134 kts 332°
2026-05-09 07:36 52.16127 20.97101 345 ft 108 kts 330°
2026-05-09 07:36 52.16657 20.96635 352 ft 64 kts 332°
2026-05-09 07:37 52.16969 20.96368 341 ft 35 kts 332°
2026-05-09 07:37 52.17148 20.96260 340 ft 23 kts 347°
2026-05-09 07:37 52.17301 20.96245 345 ft 19 kts 360°
2026-05-09 07:37 52.17408 20.96332 357 ft 19 kts 59°
2026-05-09 07:38 52.17476 20.96529 358 ft 21 kts 52°
2026-05-09 07:38 52.17556 20.96717 355 ft 19 kts 59°
2026-05-09 07:38 52.17630 20.96912 352 ft 21 kts 56°
2026-05-09 07:38 52.17652 20.97109 353 ft 17 kts 140°
2026-05-09 07:39 52.17565 20.97133 349 ft 10 kts 232°
2026-05-09 07:39 52.17553 20.97094 349 ft 0 kts 242°